SEC Form POS AMI

Post-effective amendment

Latest POS AMI Filings:

Date Accession No. Company
2020-07-17 00:00:00 0001379491-20-003181 FIDELITY HANOVER STREET TRUST
2020-07-16 00:00:00 0001379491-20-003146 Fidelity Central Investment Portfolios LLC
2020-07-16 00:00:00 0001379491-20-003147 Fidelity Central Investment Portfolios II LLC
2020-07-16 00:00:00 0001379491-20-003163 FIDELITY HANOVER STREET TRUST
2020-07-16 00:00:00 0001379491-20-003148 Fidelity Oxford Street Trust II
2020-07-16 00:00:00 0001379491-20-003160 FIDELITY GARRISON STREET TRUST
2020-07-09 00:00:00 0001398344-20-013469 Delaware Wilshire Private Markets Fund
2020-07-09 00:00:00 0001398344-20-013471 Delaware Wilshire Private Markets Tender Fund
2020-07-07 00:00:00 0001081400-20-000767 WELLS FARGO MASTER TRUST
2020-07-02 00:00:00 0001133228-20-004266 AIP Private Equity Opportunities Fund I A LP
2020-07-02 00:00:00 0001193125-20-185411 PIMCO FUNDS
2020-06-30 00:00:00 0000051931-20-000413 Capital Group Central Fund Series
2020-06-29 00:00:00 0001193125-20-181185 JPMorgan Institutional Trust
2020-06-26 00:00:00 0001193125-20-180792 Master Trust
2020-06-26 00:00:00 0001087961-20-000030 WELLS FARGO MASTER TRUST
2020-06-26 00:00:00 0001193125-20-181050 MASTER INVESTMENT PORTFOLIO
2020-06-26 00:00:00 0001623632-20-001218 Federated Core Trust III
2020-06-12 00:00:00 0001104659-20-072944 BBR ALO Fund, LLC
2020-05-29 00:00:00 0000940394-20-000992 5-to-15 Year Laddered Municipal Bond Portfolio
2020-05-28 00:00:00 0001193125-20-153302 Conversus StepStone Private Markets
2020-05-28 00:00:00 0001623632-20-001113 FEDERATED HERMES CORE TRUST
2020-05-27 00:00:00 0001398344-20-011523 Partners Group Private Equity (Master Fund), LLC
2020-05-20 00:00:00 0001193125-20-146868 Columbia Funds Series Trust II
2020-05-15 00:00:00 0001379491-20-002255 MONEY MARKET PORTFOLIOS
2020-05-15 00:00:00 0001133228-20-002938 John Hancock Collateral Trust
2020-05-12 00:00:00 0001206774-20-001615 HSBC FUNDS
2020-05-11 00:00:00 0000894189-20-003706 KINETICS PORTFOLIOS TRUST
2020-04-30 00:00:00 0000894189-20-003279 KINETICS PORTFOLIOS TRUST
2020-04-29 00:00:00 0000088053-20-000568 DEUTSCHE DWS EQUITY 500 INDEX PORTFOLIO
2020-04-29 00:00:00 0001193125-20-126419 MASTER INVESTMENT PORTFOLIO

See other SEC forms